Time,TemperatureF,DewpointF,PressureIn,WindDirection,WindDirectionDegrees,WindSpeedMPH,WindSpeedGustMPH,Humidity,HourlyPrecipIn,Conditions,Clouds,dailyrainin,SoftwareType,DateUTC
2013-03-22 00:00:00,23.0,1.0,-100.00,SW,227,15.0,21.0,38,0.00,,,0.00,,2013-03-22 04:00:00,
2013-03-22 00:52:00,23.0,1.0,-100.00,SW,227,15.0,21.0,38,0.00,,,0.00,,2013-03-22 04:52:00,
2013-03-22 01:00:00,22.0,-1.0,-100.00,SW,234,15.0,25.0,36,0.00,,,0.00,,2013-03-22 05:00:00,
2013-03-22 01:42:00,22.0,-1.0,-100.00,SW,234,15.0,25.0,36,0.00,,,0.00,,2013-03-22 05:42:00,
2013-03-22 01:52:00,22.0,-1.0,-100.00,SW,234,15.0,25.0,36,0.00,,,0.00,,2013-03-22 05:52:00,
2013-03-22 02:00:00,21.0,-1.0,-100.00,WSW,247,13.0,17.0,37,0.00,,,0.00,,2013-03-22 06:00:00,
2013-03-22 02:42:00,21.0,-1.0,-100.00,WSW,247,13.0,17.0,37,0.00,,,0.00,,2013-03-22 06:42:00,
2013-03-22 02:52:00,21.0,-1.0,-100.00,WSW,247,13.0,17.0,37,0.00,,,0.00,,2013-03-22 06:52:00,
2013-03-22 03:00:00,20.0,-2.0,-100.00,WSW,243,8.0,11.0,36,0.00,,,0.00,,2013-03-22 07:00:00,
2013-03-22 03:42:00,20.0,-2.0,-100.00,WSW,243,8.0,11.0,36,0.00,,,0.00,,2013-03-22 07:42:00,
2013-03-22 03:52:00,20.0,-2.0,-100.00,WSW,243,8.0,11.0,36,0.00,,,0.00,,2013-03-22 07:52:00,
2013-03-22 04:00:00,20.0,-2.0,-100.00,WSW,237,7.0,11.0,37,0.00,,,0.00,,2013-03-22 08:00:00,
2013-03-22 04:42:00,20.0,-2.0,-100.00,WSW,237,7.0,11.0,37,0.00,,,0.00,,2013-03-22 08:42:00,
2013-03-22 04:52:00,20.0,-2.0,-100.00,WSW,237,7.0,11.0,37,0.00,,,0.00,,2013-03-22 08:52:00,
2013-03-22 05:00:00,19.0,-3.0,-100.00,SSW,213,11.0,15.0,36,0.00,,,0.00,,2013-03-22 09:00:00,
2013-03-22 05:42:00,19.0,-3.0,-100.00,SSW,213,11.0,15.0,36,0.00,,,0.00,,2013-03-22 09:42:00,
2013-03-22 05:53:00,19.0,-3.0,-100.00,SSW,213,11.0,15.0,36,0.00,,,0.00,,2013-03-22 09:53:00,
2013-03-22 06:00:00,18.0,-5.0,-100.00,SW,224,9.0,12.0,35,0.00,,,0.00,,2013-03-22 10:00:00,
2013-03-22 06:42:00,18.0,-5.0,-100.00,SW,224,9.0,12.0,35,0.00,,,0.00,,2013-03-22 10:42:00,
2013-03-22 06:52:00,18.0,-5.0,-100.00,SW,224,9.0,12.0,35,0.00,,,0.00,,2013-03-22 10:52:00,
2013-03-22 07:00:00,15.0,-3.0,-100.00,West,272,3.0,4.0,45,0.00,,,0.00,,2013-03-22 11:00:00,
2013-03-22 07:42:00,15.0,-3.0,-100.00,West,272,3.0,4.0,45,0.00,,,0.00,,2013-03-22 11:42:00,
2013-03-22 07:52:00,15.0,-3.0,-100.00,West,272,3.0,4.0,45,0.00,,,0.00,,2013-03-22 11:52:00,
2013-03-22 08:00:00,13.0,-5.0,-100.00,West,276,8.0,11.0,42,0.00,,,0.00,,2013-03-22 12:00:00,
2013-03-22 08:42:00,13.0,-5.0,-100.00,West,276,8.0,11.0,42,0.00,,,0.00,,2013-03-22 12:42:00,
2013-03-22 08:52:00,13.0,-5.0,-100.00,West,276,8.0,11.0,42,0.00,,,0.00,,2013-03-22 12:52:00,
2013-03-22 09:00:00,12.0,-7.0,-100.00,West,268,10.0,13.0,43,0.00,,,0.00,,2013-03-22 13:00:00,
2013-03-22 09:42:00,12.0,-7.0,-100.00,West,268,10.0,13.0,43,0.00,,,0.00,,2013-03-22 13:42:00,
2013-03-22 09:52:00,12.0,-7.0,-100.00,West,268,10.0,13.0,43,0.00,,,0.00,,2013-03-22 13:52:00,
2013-03-22 10:00:00,14.0,-3.0,-100.00,WSW,241,6.0,7.0,44,0.00,,,0.00,,2013-03-22 14:00:00,
2013-03-22 10:42:00,14.0,-3.0,-100.00,WSW,241,6.0,7.0,44,0.00,,,0.00,,2013-03-22 14:42:00,
2013-03-22 10:52:00,14.0,-3.0,-100.00,WSW,241,6.0,7.0,44,0.00,,,0.00,,2013-03-22 14:52:00,
2013-03-22 12:00:00,22.0,7.0,-100.00,ESE,113,4.0,9.0,51,0.00,,,0.00,,2013-03-22 16:00:00,
2013-03-22 12:42:00,22.0,7.0,-100.00,ESE,113,4.0,9.0,51,0.00,,,0.00,,2013-03-22 16:42:00,
2013-03-22 12:52:00,22.0,7.0,-100.00,ESE,113,4.0,9.0,51,0.00,,,0.00,,2013-03-22 16:52:00,
2013-03-22 13:00:00,19.0,14.0,-100.00,ENE,78,7.0,10.0,82,0.00,,,0.00,,2013-03-22 17:00:00,
2013-03-22 13:42:00,19.0,14.0,-100.00,ENE,78,7.0,10.0,82,0.00,,,0.00,,2013-03-22 17:42:00,
2013-03-22 13:53:00,19.0,14.0,-100.00,ENE,78,7.0,10.0,82,0.00,,,0.00,,2013-03-22 17:53:00,
2013-03-22 14:00:00,19.0,10.0,-100.00,ENE,61,5.0,7.0,70,0.00,,,0.00,,2013-03-22 18:00:00,
2013-03-22 14:42:00,19.0,10.0,-100.00,ENE,61,5.0,7.0,70,0.00,,,0.00,,2013-03-22 18:42:00,
2013-03-22 14:52:00,19.0,10.0,-100.00,ENE,61,5.0,7.0,70,0.00,,,0.00,,2013-03-22 18:52:00,
2013-03-22 15:00:00,16.0,13.0,-100.00,East,82,5.0,7.0,88,0.00,,,0.00,,2013-03-22 19:00:00,
2013-03-22 15:42:00,16.0,13.0,-100.00,East,82,5.0,7.0,88,0.00,,,0.00,,2013-03-22 19:42:00,
2013-03-22 15:52:00,16.0,13.0,-100.00,East,82,5.0,7.0,88,0.00,,,0.00,,2013-03-22 19:52:00,
2013-03-22 16:00:00,19.0,15.0,-100.00,NE,44,5.0,7.0,87,0.00,,,0.00,,2013-03-22 20:00:00,
2013-03-22 16:42:00,19.0,15.0,-100.00,NE,44,5.0,7.0,87,0.00,,,0.00,,2013-03-22 20:42:00,
2013-03-22 16:52:00,19.0,15.0,-100.00,NE,44,5.0,7.0,87,0.00,,,0.00,,2013-03-22 20:52:00,
2013-03-22 17:00:00,18.0,16.0,-100.00,East,97,1.0,1.0,89,0.00,,,0.00,,2013-03-22 21:00:00,
2013-03-22 17:42:00,18.0,16.0,-100.00,East,97,1.0,1.0,89,0.00,,,0.00,,2013-03-22 21:42:00,
2013-03-22 17:53:00,18.0,16.0,-100.00,East,97,1.0,1.0,89,0.00,,,0.00,,2013-03-22 21:53:00,
2013-03-22 18:00:00,19.0,17.0,-100.00,NE,45,6.0,7.0,89,0.00,,,0.00,,2013-03-22 22:00:00,
2013-03-22 18:42:00,19.0,17.0,-100.00,NE,45,6.0,7.0,89,0.00,,,0.00,,2013-03-22 22:42:00,
2013-03-22 18:53:00,19.0,17.0,-100.00,NE,45,6.0,7.0,89,0.00,,,0.00,,2013-03-22 22:53:00,
2013-03-22 19:00:00,18.0,15.0,-100.00,ENE,64,5.0,6.0,88,0.00,,,0.00,,2013-03-22 23:00:00,
2013-03-22 19:42:00,18.0,15.0,-100.00,ENE,64,5.0,6.0,88,0.00,,,0.00,,2013-03-22 23:42:00,
2013-03-22 19:52:00,18.0,15.0,-100.00,ENE,64,5.0,6.0,88,0.00,,,0.00,,2013-03-22 23:52:00,
2013-03-22 21:00:00,16.0,13.0,-100.00,ENE,78,7.0,10.0,88,0.00,,,0.00,,2013-03-23 01:00:00,
2013-03-22 21:42:00,16.0,13.0,-100.00,ENE,78,7.0,10.0,88,0.00,,,0.00,,2013-03-23 01:42:00,
2013-03-22 21:52:00,16.0,13.0,-100.00,ENE,78,7.0,10.0,88,0.00,,,0.00,,2013-03-23 01:52:00,
2013-03-22 22:00:00,16.0,13.0,-100.00,ENE,75,1.0,4.0,88,0.00,,,0.00,,2013-03-23 02:00:00,
2013-03-22 22:42:00,16.0,13.0,-100.00,ENE,75,1.0,4.0,88,0.00,,,0.00,,2013-03-23 02:42:00,
2013-03-22 22:52:00,16.0,13.0,-100.00,ENE,75,1.0,4.0,88,0.00,,,0.00,,2013-03-23 02:52:00,
2013-03-22 23:00:00,16.0,13.0,-100.00,North,11,2.0,2.0,88,0.00,,,0.00,,2013-03-23 03:00:00,
2013-03-22 23:43:00,16.0,13.0,-100.00,North,11,2.0,2.0,88,0.00,,,0.00,,2013-03-23 03:43:00,
2013-03-22 23:53:00,16.0,13.0,-100.00,North,11,2.0,2.0,88,0.00,,,0.00,,2013-03-23 03:53:00,